,,PA_Meas_PMT16A,,PR_Meas_QMR101_102,,RH_Meas_QMH101,,SR_Meas_QMS101,,TA_Meas_QMH101,,GenWind,,GenWind,
time,status,PA,status,PR,status,RH,status,SR,status,TA,status,DirAvg,status,SpdAvg,
2014-03-24, 07:17:04,VALID,917.81,VALID,0,VALID,83.4917,VALID,40.8276,VALID,20.3074,VALID,135,VALID,2.02969,
2014-03-24, 07:18:04,VALID,917.819,VALID,0,VALID,83.7813,VALID,45.0178,VALID,20.2879,VALID,123,VALID,1.58125,
2014-03-24, 07:19:04,VALID,917.848,VALID,0,VALID,84.0939,VALID,47.489,VALID,20.2879,VALID,142,VALID,1.72148,
2014-03-24, 07:20:04,VALID,917.869,VALID,0,VALID,83.8271,VALID,49.9601,VALID,20.2684,VALID,105,VALID,1.42148,
2014-03-24, 07:21:04,VALID,917.86,VALID,0,VALID,84.1091,VALID,50.4973,VALID,20.2684,VALID,140,VALID,1.71328,
2014-03-24, 07:22:04,VALID,917.839,VALID,0,VALID,83.5526,VALID,46.6295,VALID,20.2684,VALID,132,VALID,1.8207,
2014-03-24, 07:23:04,VALID,917.872,VALID,0,VALID,83.8347,VALID,41.9021,VALID,20.2684,VALID,132,VALID,2.21406,
2014-03-24, 07:24:04,VALID,917.841,VALID,0,VALID,84.1778,VALID,38.0342,VALID,20.2684,VALID,101,VALID,1.16445,
2014-03-24, 07:25:04,VALID,917.82,VALID,0,VALID,83.7966,VALID,37.2821,VALID,20.2504,VALID,156,VALID,1.80703,
2014-03-24, 07:26:04,VALID,917.825,VALID,0,VALID,84.1701,VALID,39.216,VALID,20.2894,VALID,142,VALID,1.19141,
2014-03-24, 07:27:04,VALID,917.817,VALID,0,VALID,84.132,VALID,43.5137,VALID,20.2699,VALID,132,VALID,1.51602,
2014-03-24, 07:28:04,VALID,917.857,VALID,0,VALID,84.1625,VALID,48.6708,VALID,20.3089,VALID,121,VALID,1.46172,
2014-03-24, 07:29:04,VALID,917.834,VALID,0,VALID,83.6746,VALID,53.3983,VALID,20.3284,VALID,126,VALID,1.87617,
2014-03-24, 07:30:04,VALID,917.852,VALID,0,VALID,83.4078,VALID,55.3322,VALID,20.3464,VALID,132,VALID,1.87227,
2014-03-24, 07:31:04,VALID,917.824,VALID,0,VALID,83.6746,VALID,53.828,VALID,20.3269,VALID,136,VALID,0.799219,
2014-03-24, 07:32:04,VALID,917.876,VALID,0,VALID,83.8271,VALID,51.142,VALID,20.3269,VALID,131,VALID,1.34492,
2014-03-24, 07:33:04,VALID,917.877,VALID,0,VALID,84.1015,VALID,53.9355,VALID,20.3269,VALID,118,VALID,1.42773,
2014-03-24, 07:34:04,VALID,917.885,VALID,0,VALID,83.2248,VALID,57.9108,VALID,20.3674,VALID,147,VALID,1.93477,
2014-03-24, 07:35:04,VALID,917.878,VALID,0,VALID,83.5755,VALID,58.7703,VALID,20.3854,VALID,122,VALID,1.63477,
2014-03-24, 07:36:04,VALID,917.881,VALID,0,VALID,83.2858,VALID,60.2745,VALID,20.3659,VALID,97,VALID,1.65977,
2014-03-24, 07:37:04,VALID,917.902,VALID,0,VALID,83.1791,VALID,59.6298,VALID,20.3854,VALID,117,VALID,1.6332,
2014-03-24, 07:38:04,VALID,917.907,VALID,0,VALID,82.6759,VALID,59.0926,VALID,20.3854,VALID,113,VALID,1.66562,
2014-03-24, 07:39:04,VALID,917.957,VALID,0,VALID,82.8742,VALID,64.8945,VALID,20.4454,VALID,117,VALID,2.06289,
2014-03-24, 07:40:04,VALID,917.932,VALID,0,VALID,81.9975,VALID,73.7046,VALID,20.4244,VALID,145,VALID,1.87422,
2014-03-24, 07:41:04,VALID,917.936,VALID,0,VALID,81.5629,VALID,75.3162,VALID,20.4829,VALID,146,VALID,2.37344,
2014-03-24, 07:42:04,VALID,917.955,VALID,0,VALID,82.6073,VALID,69.1921,VALID,20.5219,VALID,97,VALID,1.81836,
2014-03-24, 07:43:04,VALID,917.952,VALID,0,VALID,82.0432,VALID,68.1177,VALID,20.582,VALID,90,VALID,2.04805,
2014-03-24, 07:44:04,VALID,917.995,VALID,0,VALID,82.4854,VALID,72.2005,VALID,20.5414,VALID,119,VALID,1.99297,
2014-03-24, 07:45:04,VALID,917.948,VALID,0,VALID,80.7243,VALID,84.3413,VALID,20.5609,VALID,115,VALID,2.46563,
2014-03-24, 07:46:04,VALID,917.969,VALID,0,VALID,82.028,VALID,81.8702,VALID,20.5999,VALID,142,VALID,1.33906,
2014-03-24, 07:47:04,VALID,917.951,VALID,0,VALID,82.4854,VALID,82.085,VALID,20.6194,VALID,126,VALID,1.3957,
2014-03-24, 07:48:04,VALID,918.004,VALID,0,VALID,81.845,VALID,83.3743,VALID,20.5999,VALID,107,VALID,2.69219,
2014-03-24, 07:49:04,VALID,917.967,VALID,0,VALID,81.5172,VALID,93.4738,VALID,20.6194,VALID,136,VALID,1.6418,
2014-03-24, 07:51:04,VALID,918.04,VALID,0,VALID,82.2262,VALID,100.243,VALID,20.678,VALID,96,VALID,1.9875,
2014-03-24, 07:52:04,VALID,918.043,VALID,0,VALID,80.6786,VALID,101.102,VALID,20.6585,VALID,129,VALID,3.925,
2014-03-24, 07:53:04,VALID,918.03,VALID,0,VALID,81.2427,VALID,95.8375,VALID,20.678,VALID,147,VALID,1.81367,
2014-03-24, 07:54:04,VALID,918.017,VALID,0,VALID,81.319,VALID,98.631,VALID,20.6975,VALID,107,VALID,1.36367,
2014-03-24, 07:55:04,VALID,918.032,VALID,0,VALID,81.3876,VALID,113.136,VALID,20.678,VALID,111,VALID,2.37695,
2014-03-24, 07:56:04,VALID,918.023,VALID,0,VALID,82.5997,VALID,137.632,VALID,20.6959,VALID,93,VALID,1.00312,
2014-03-24, 07:57:04,VALID,918.028,VALID,0,VALID,80.8158,VALID,207.576,VALID,20.7154,VALID,137,VALID,2.15781,
2014-03-24, 07:58:04,VALID,917.998,VALID,0,VALID,80.3356,VALID,201.452,VALID,20.795,VALID,116,VALID,1.48359,
2014-03-24, 07:59:04,VALID,917.989,VALID,0,VALID,80.427,VALID,128.607,VALID,20.912,VALID,133,VALID,1.5457,
2014-03-24, 08:00:04,VALID,917.991,VALID,0,VALID,79.7562,VALID,121.731,VALID,20.9901,VALID,121,VALID,1.5125,
2014-03-24, 08:01:04,VALID,917.992,VALID,0,VALID,80.0154,VALID,158.798,VALID,21.0096,VALID,112,VALID,1.3418,
2014-03-24, 08:02:04,VALID,918.015,VALID,0,VALID,79.9163,VALID,135.268,VALID,21.0291,VALID,139,VALID,1.83203,
2014-03-24, 08:03:04,VALID,918.019,VALID,0,VALID,80.0687,VALID,159.98,VALID,21.008,VALID,114,VALID,1.64727,
2014-03-24, 08:04:04,VALID,918.026,VALID,0,VALID,80.0611,VALID,181.146,VALID,21.0681,VALID,85,VALID,1.07461,
2014-03-24, 08:05:04,VALID,918.072,VALID,0,VALID,79.3903,VALID,150.955,VALID,21.1461,VALID,156,VALID,1.84531,
2014-03-24, 08:06:04,VALID,918.101,VALID,0,VALID,79.253,VALID,254.206,VALID,21.1445,VALID,127,VALID,1.04531,
2014-03-24, 08:07:04,VALID,918.141,VALID,0,VALID,78.9938,VALID,134.624,VALID,21.2437,VALID,88,VALID,1.44336,
2014-03-24, 08:08:04,VALID,918.157,VALID,0,VALID,78.6737,VALID,152.996,VALID,21.2421,VALID,56,VALID,2.55547,
2014-03-24, 08:09:04,VALID,918.202,VALID,0,VALID,77.7741,VALID,146.12,VALID,21.2031,VALID,120,VALID,2.73594,
2014-03-24, 08:10:04,VALID,918.186,VALID,0,VALID,78.0714,VALID,148.913,VALID,21.1836,VALID,143,VALID,3.60703,
2014-03-24, 08:11:04,VALID,918.18,VALID,0,VALID,79.1463,VALID,177.493,VALID,21.2031,VALID,151,VALID,0.925781,
2014-03-24, 08:12:04,VALID,918.172,VALID,0,VALID,78.8261,VALID,179.104,VALID,21.2031,VALID,145,VALID,2.13633,
2014-03-24, 08:13:04,VALID,918.206,VALID,0,VALID,78.9405,VALID,130.971,VALID,21.2226,VALID,136,VALID,1.23945,
2014-03-24, 08:14:04,VALID,918.203,VALID,0,VALID,77.7741,VALID,112.061,VALID,21.1836,VALID,76,VALID,1.55391,
2014-03-24, 08:15:04,VALID,918.205,VALID,0,VALID,79.3598,VALID,106.904,VALID,21.2031,VALID,133,VALID,2.4582,
2014-03-24, 08:16:04,VALID,918.242,VALID,0,VALID,78.6279,VALID,106.904,VALID,21.164,VALID,149,VALID,2.06875,
2014-03-24, 08:17:04,VALID,918.232,VALID,0,VALID,79.2302,VALID,121.194,VALID,21.125,VALID,79,VALID,2.33633,
2014-03-24, 08:18:04,VALID,918.267,VALID,0,VALID,78.849,VALID,136.773,VALID,21.125,VALID,138,VALID,2.11758,
2014-03-24, 08:19:04,VALID,918.251,VALID,0,VALID,78.3458,VALID,147.517,VALID,21.164,VALID,128,VALID,1.70195,
2014-03-24, 08:20:04,VALID,918.224,VALID,0,VALID,77.1871,VALID,156.219,VALID,21.1445,VALID,151,VALID,2.75156,
2014-03-24, 08:21:04,VALID,918.232,VALID,0,VALID,78.788,VALID,158.583,VALID,21.1852,VALID,89,VALID,1.8332,
2014-03-24, 08:22:04,VALID,918.263,VALID,0,VALID,79.7486,VALID,151.707,VALID,21.1852,VALID,100,VALID,1.83438,
2014-03-24, 08:23:04,VALID,918.231,VALID,0,VALID,77.1947,VALID,146.12,VALID,21.1657,VALID,128,VALID,3.14023,
2014-03-24, 08:24:04,VALID,918.231,VALID,0,VALID,77.736,VALID,158.583,VALID,21.1852,VALID,121,VALID,3.7332,
2014-03-24, 08:25:04,VALID,918.284,VALID,0,VALID,78.3154,VALID,155.79,VALID,21.1657,VALID,108,VALID,2.17773,
2014-03-24, 08:26:04,VALID,918.28,VALID,0,VALID,78.9176,VALID,174.914,VALID,21.1852,VALID,129,VALID,1.42891,
2014-03-24, 08:27:04,VALID,918.302,VALID,0,VALID,78.445,VALID,235.833,VALID,21.2242,VALID,139,VALID,1.62812,
2014-03-24, 08:28:04,VALID,918.304,VALID,0,VALID,79.3064,VALID,218.965,VALID,21.3234,VALID,99,VALID,1.4082,
2014-03-24, 08:29:04,VALID,918.314,VALID,0,VALID,77.8427,VALID,161.484,VALID,21.3803,VALID,128,VALID,3.00039,
2014-03-24, 08:30:04,VALID,918.369,VALID,0,VALID,77.4539,VALID,154.715,VALID,21.3998,VALID,135,VALID,2.95273,
2014-03-24, 08:31:04,VALID,918.26,VALID,0,VALID,77.1795,VALID,340.911,VALID,21.3803,VALID,66,VALID,3.69414,
2014-03-24, 08:32:04,VALID,918.309,VALID,0,VALID,77.9266,VALID,202.204,VALID,21.4778,VALID,94,VALID,1.70781,
2014-03-24, 08:33:04,VALID,918.281,VALID,0,VALID,77.6292,VALID,245.288,VALID,21.4973,VALID,92,VALID,1.97617,
2014-03-24, 08:34:04,VALID,918.308,VALID,0,VALID,77.6369,VALID,373.036,VALID,21.6144,VALID,151,VALID,1.2418,
2014-03-24, 08:35:04,VALID,918.286,VALID,0,VALID,76.7983,VALID,232.073,VALID,21.7315,VALID,187,VALID,2.10508,
2014-03-24, 08:36:04,VALID,918.314,VALID,0,VALID,77.4463,VALID,320.604,VALID,21.829,VALID,89,VALID,1.43125,
2014-03-24, 08:37:04,VALID,918.332,VALID,0,VALID,76.6153,VALID,174.055,VALID,21.8876,VALID,108,VALID,2.03906,
2014-03-24, 08:38:04,VALID,918.322,VALID,0,VALID,77.37,VALID,181.576,VALID,21.8681,VALID,104,VALID,1.84219,
2014-03-24, 08:39:04,VALID,918.299,VALID,0,VALID,77.3472,VALID,168.253,VALID,21.8469,VALID,88,VALID,0.978125,
2014-03-24, 08:40:04,VALID,918.341,VALID,0,VALID,76.8517,VALID,300.298,VALID,21.8681,VALID,130,VALID,1.25195,
2014-03-24, 08:41:04,VALID,918.337,VALID,0,VALID,76.4705,VALID,196.725,VALID,21.8485,VALID,83,VALID,1.47109,
2014-03-24, 08:42:04,VALID,918.317,VALID,0,VALID,75.975,VALID,201.882,VALID,21.8274,VALID,69,VALID,3.06523,
2014-03-24, 08:43:04,VALID,918.351,VALID,0,VALID,75.1135,VALID,191.997,VALID,21.7688,VALID,98,VALID,1.76523,
2014-03-24, 08:44:04,VALID,918.346,VALID,0,VALID,76.6916,VALID,205.32,VALID,21.8079,VALID,107,VALID,1.4375,
2014-03-24, 08:45:04,VALID,918.388,VALID,0,VALID,76.6687,VALID,173.195,VALID,21.8485,VALID,78,VALID,2.02031,
2014-03-24, 08:46:04,VALID,918.425,VALID,0,VALID,76.0588,VALID,165.567,VALID,21.829,VALID,119,VALID,1.75859,
2014-03-24, 08:47:04,VALID,918.4,VALID,0,VALID,76.6077,VALID,176.956,VALID,21.8079,VALID,78,VALID,1.78828,
2014-03-24, 08:48:04,VALID,918.427,VALID,0,VALID,75.8759,VALID,244.429,VALID,21.829,VALID,129,VALID,2.03203,
2014-03-24, 08:49:04,VALID,918.465,VALID,0,VALID,77.1795,VALID,217.891,VALID,21.829,VALID,122,VALID,1.09375,
2014-03-24, 08:50:04,VALID,918.419,VALID,0,VALID,77.21,VALID,222.833,VALID,21.8079,VALID,118,VALID,1.34258,
2014-03-24, 08:51:04,VALID,918.441,VALID,0,VALID,76.7221,VALID,223.8,VALID,21.8876,VALID,110,VALID,2.06875,
2014-03-24, 08:52:04,VALID,918.396,VALID,0,VALID,76.4781,VALID,260.222,VALID,21.8859,VALID,107,VALID,2.15273,
2014-03-24, 08:53:04,VALID,918.456,VALID,0,VALID,75.2965,VALID,261.297,VALID,21.9054,VALID,111,VALID,1.74297,
2014-03-24, 08:54:04,VALID,918.445,VALID,0,VALID,75.6319,VALID,292.24,VALID,21.9444,VALID,88,VALID,2.58633,
2014-03-24, 08:55:04,VALID,918.438,VALID,0,VALID,74.2978,VALID,211.014,VALID,21.9656,VALID,109,VALID,2.28047,
2014-03-24, 08:56:04,VALID,918.41,VALID,0,VALID,73.6879,VALID,230.354,VALID,21.9054,VALID,108,VALID,1.85352,
2014-03-24, 08:57:04,VALID,918.422,VALID,0,VALID,75.0906,VALID,495.411,VALID,21.9054,VALID,148,VALID,3.03594,
2014-03-24, 08:58:04,VALID,918.451,VALID,0,VALID,74.1377,VALID,500.461,VALID,22.0437,VALID,146,VALID,2.35938,
2014-03-24, 08:59:04,VALID,918.446,VALID,0,VALID,73.6193,VALID,342.845,VALID,22.1201,VALID,108,VALID,3.62891,
2014-03-24, 09:00:04,VALID,918.474,VALID,0,VALID,73.6879,VALID,325.654,VALID,22.1396,VALID,128,VALID,2.53516,
2014-03-24, 09:01:04,VALID,918.436,VALID,0,VALID,74.1301,VALID,484.022,VALID,22.1981,VALID,89,VALID,2.91641,
2014-03-24, 09:02:04,VALID,918.43,VALID,0,VALID,75.205,VALID,297.505,VALID,22.2567,VALID,115,VALID,1.71641,
2014-03-24, 09:03:04,VALID,918.454,VALID,0,VALID,72.148,VALID,233.362,VALID,22.2567,VALID,144,VALID,1.28281,
2014-03-24, 09:04:04,VALID,918.464,VALID,0,VALID,72.4682,VALID,207.469,VALID,22.2957,VALID,128,VALID,2.24609,
2014-03-24, 09:05:04,VALID,918.497,VALID,0,VALID,72.9332,VALID,313.836,VALID,22.2762,VALID,145,VALID,2.30547,
2014-03-24, 09:06:04,VALID,918.449,VALID,0,VALID,73.5355,VALID,405.375,VALID,22.2957,VALID,92,VALID,1.29023,
2014-03-24, 09:07:04,VALID,918.439,VALID,0,VALID,73.9471,VALID,272.901,VALID,22.4128,VALID,132,VALID,2.19375,
2014-03-24, 09:08:04,VALID,918.478,VALID,0,VALID,73.8557,VALID,230.246,VALID,22.5884,VALID,153,VALID,1.20586,
2014-03-24, 09:09:04,VALID,918.469,VALID,0,VALID,74.092,VALID,372.391,VALID,22.5689,VALID,120,VALID,1.10039,
2014-03-24, 09:10:04,VALID,918.483,VALID,0,VALID,71.9041,VALID,294.711,VALID,22.6665,VALID,116,VALID,2.10391,
2014-03-24, 09:11:04,VALID,918.491,VALID,0,VALID,71.7287,VALID,467.154,VALID,22.5086,VALID,141,VALID,1.81055,
2014-03-24, 09:12:04,VALID,918.498,VALID,0,VALID,71.4162,VALID,236.371,VALID,22.4696,VALID,130,VALID,2.16836,
2014-03-24, 09:13:04,VALID,918.502,VALID,0,VALID,72.209,VALID,256.569,VALID,22.372,VALID,153,VALID,2.34766,
2014-03-24, 09:14:04,VALID,918.512,VALID,0,VALID,72.7045,VALID,401.078,VALID,22.3542,VALID,149,VALID,2.15352,
2014-03-24, 09:15:04,VALID,918.498,VALID,0,VALID,73.7108,VALID,264.735,VALID,22.4111,VALID,95,VALID,1.99375,
2014-03-24, 09:16:04,VALID,918.526,VALID,0,VALID,72.1937,VALID,275.909,VALID,22.4891,VALID,181,VALID,1.26484,
2014-03-24, 09:17:04,VALID,918.529,VALID,0,VALID,71.8278,VALID,304.381,VALID,22.6079,VALID,141,VALID,2.15664,
2014-03-24, 09:18:04,VALID,918.547,VALID,0,VALID,72.0946,VALID,265.809,VALID,22.5884,VALID,186,VALID,2.05273,
2014-03-24, 09:19:04,VALID,918.516,VALID,0,VALID,71.3552,VALID,232.073,VALID,22.6096,VALID,166,VALID,1.73086,
2014-03-24, 09:20:04,VALID,918.562,VALID,0,VALID,71.2637,VALID,315.77,VALID,22.6274,VALID,116,VALID,1.84961,
2014-03-24, 09:21:04,VALID,918.57,VALID,0,VALID,72.2776,VALID,246.04,VALID,22.5494,VALID,133,VALID,1.83633,
2014-03-24, 09:22:04,VALID,918.526,VALID,0,VALID,71.9422,VALID,565.14,VALID,22.5316,VALID,133,VALID,2.60625,
2014-03-24, 09:23:04,VALID,918.506,VALID,0,VALID,71.6372,VALID,281.711,VALID,22.5299,VALID,113,VALID,2.93047,
2014-03-24, 09:24:04,VALID,918.544,VALID,0,VALID,71.4467,VALID,581.686,VALID,22.5884,VALID,91,VALID,1.71953,
2014-03-24, 09:25:04,VALID,918.524,VALID,0,VALID,71.378,VALID,241.42,VALID,22.686,VALID,112,VALID,1.42969,
2014-03-24, 09:26:04,VALID,918.556,VALID,0,VALID,71.3171,VALID,408.491,VALID,22.7445,VALID,139,VALID,2.31875,
2014-03-24, 09:27:04,VALID,918.525,VALID,0,VALID,71.8888,VALID,329.307,VALID,22.7836,VALID,54,VALID,1.79023,
2014-03-24, 09:28:04,VALID,918.53,VALID,0,VALID,70.6538,VALID,614.778,VALID,22.9397,VALID,113,VALID,1.10312,
2014-03-24, 09:29:04,VALID,918.531,VALID,0,VALID,72.5063,VALID,394.739,VALID,23.0959,VALID,113,VALID,1.86875,
2014-03-24, 09:30:04,VALID,918.507,VALID,0,VALID,71.3399,VALID,292.992,VALID,23.1154,VALID,116,VALID,2.08906,
2014-03-24, 09:31:04,VALID,918.46,VALID,0,VALID,69.8839,VALID,350.043,VALID,23.1739,VALID,101,VALID,1.09375,
2014-03-24, 09:32:04,VALID,918.447,VALID,0,VALID,69.739,VALID,297.719,VALID,23.2325,VALID,161,VALID,2.2293,
2014-03-24, 09:33:04,VALID,918.426,VALID,0,VALID,71.0731,VALID,490.791,VALID,23.1544,VALID,74,VALID,2.6043,
2014-03-24, 09:34:04,VALID,918.393,VALID,0,VALID,71.7211,VALID,387.433,VALID,23.0763,VALID,107,VALID,1.6125,
2014-03-24, 09:35:04,VALID,918.378,VALID,0,VALID,72.1023,VALID,637.126,VALID,23.1935,VALID,141,VALID,1.9707,
2014-03-24, 09:36:04,VALID,918.379,VALID,0,VALID,70.8901,VALID,593.505,VALID,23.2502,VALID,137,VALID,2.24336,
2014-03-24, 09:37:04,VALID,918.408,VALID,0,VALID,68.3211,VALID,626.489,VALID,23.2502,VALID,143,VALID,2.19258,
2014-03-24, 09:38:04,VALID,918.372,VALID,0,VALID,71.0807,VALID,416.012,VALID,23.2911,VALID,130,VALID,2.2168,
2014-03-24, 09:39:04,VALID,918.368,VALID,0,VALID,68.4354,VALID,631.217,VALID,23.2893,VALID,156,VALID,2.76016,
2014-03-24, 09:40:04,VALID,918.315,VALID,0,VALID,68.3515,VALID,643.465,VALID,23.3301,VALID,158,VALID,4.10234,
2014-03-24, 09:41:04,VALID,918.348,VALID,0,VALID,69.4951,VALID,664.523,VALID,23.3478,VALID,108,VALID,2.68047,
2014-03-24, 09:42:04,VALID,918.349,VALID,0,VALID,69.2511,VALID,645.399,VALID,23.4454,VALID,124,VALID,2.2707,
2014-03-24, 09:43:04,VALID,918.296,VALID,0,VALID,69.0986,VALID,619.613,VALID,23.4277,VALID,115,VALID,2.46719,
2014-03-24, 09:44:04,VALID,918.371,VALID,0,VALID,67.9704,VALID,684.83,VALID,23.5448,VALID,168,VALID,2.27656,
2014-03-24, 09:45:04,VALID,918.354,VALID,0,VALID,68.5421,VALID,633.903,VALID,23.5839,VALID,147,VALID,2.2293,
2014-03-24, 09:46:04,VALID,918.348,VALID,0,VALID,67.8865,VALID,665.49,VALID,23.6229,VALID,136,VALID,3.72148,
2014-03-24, 09:47:04,VALID,918.336,VALID,0,VALID,69.4188,VALID,648.085,VALID,23.6016,VALID,100,VALID,3.20352,
2014-03-24, 09:48:04,VALID,918.378,VALID,0,VALID,70.1659,VALID,631.109,VALID,23.6992,VALID,68,VALID,2.61055,
2014-03-24, 09:49:04,VALID,918.375,VALID,0,VALID,67.6654,VALID,680.425,VALID,23.8163,VALID,151,VALID,2.50586,
2014-03-24, 09:50:04,VALID,918.356,VALID,0,VALID,68.5345,VALID,679.78,VALID,23.8749,VALID,99,VALID,2.72656,
2014-03-24, 09:51:04,VALID,918.355,VALID,0,VALID,68.4202,VALID,539.677,VALID,23.8358,VALID,165,VALID,2.49648,
2014-03-24, 09:52:04,VALID,918.332,VALID,0,VALID,67.3453,VALID,641.639,VALID,23.8749,VALID,136,VALID,2.16992,
2014-03-24, 09:53:04,VALID,918.317,VALID,0,VALID,67.3681,VALID,664.201,VALID,24.0115,VALID,131,VALID,1.7332,
2014-03-24, 09:54:04,VALID,918.318,VALID,0,VALID,67.2385,VALID,687.946,VALID,24.0701,VALID,80,VALID,1.50078,
2014-03-24, 09:55:04,VALID,918.347,VALID,0,VALID,67.6883,VALID,707.5,VALID,24.1873,VALID,112,VALID,2.70313,
2014-03-24, 09:56:04,VALID,918.289,VALID,0,VALID,66.6515,VALID,680.21,VALID,24.2281,VALID,139,VALID,3.15898,
2014-03-24, 09:57:04,VALID,918.304,VALID,0,VALID,67.3605,VALID,689.128,VALID,24.1677,VALID,99,VALID,3.78555,
2014-03-24, 09:58:04,VALID,918.388,VALID,0,VALID,66.5982,VALID,663.449,VALID,24.0896,VALID,124,VALID,3.96914,
2014-03-24, 09:59:04,VALID,918.322,VALID,0,VALID,67.2843,VALID,292.67,VALID,23.8749,VALID,106,VALID,2.37148,
2014-03-24, 10:00:04,VALID,918.309,VALID,0,VALID,67.6883,VALID,398.284,VALID,23.7968,VALID,140,VALID,2.30156,
2014-03-24, 10:01:04,VALID,918.329,VALID,0,VALID,69.3807,VALID,543.33,VALID,23.8554,VALID,106,VALID,1.18984,
2014-03-24, 10:02:04,VALID,918.345,VALID,0,VALID,66.4228,VALID,644.325,VALID,24.0506,VALID,142,VALID,1.88672,
2014-03-24, 10:03:04,VALID,918.353,VALID,0,VALID,67.6197,VALID,699.872,VALID,24.1092,VALID,122,VALID,1.94687,
2014-03-24, 10:04:04,VALID,918.299,VALID,0,VALID,65.447,VALID,746.179,VALID,24.1482,VALID,98,VALID,3.25195,
2014-03-24, 10:05:04,VALID,918.306,VALID,0,VALID,66.8878,VALID,239.379,VALID,24.0896,VALID,70,VALID,2.65273,
2014-03-24, 10:06:04,VALID,918.305,VALID,0,VALID,66.5524,VALID,253.991,VALID,24.0701,VALID,49,VALID,1.76797,
2014-03-24, 10:07:04,VALID,918.304,VALID,0,VALID,66.5295,VALID,325.009,VALID,24.0115,VALID,95,VALID,1.44023,
2014-03-24, 10:08:04,VALID,918.297,VALID,0,VALID,66.7659,VALID,730.278,VALID,23.8731,VALID,144,VALID,2.8957,
2014-03-24, 10:09:04,VALID,918.305,VALID,0,VALID,65.2259,VALID,791.089,VALID,23.9121,VALID,165,VALID,3.49688,
2014-03-24, 10:10:04,VALID,918.289,VALID,0,VALID,68.1991,VALID,782.064,VALID,23.8536,VALID,134,VALID,2.05273,
2014-03-24, 10:11:04,VALID,918.326,VALID,0,VALID,67.147,VALID,691.276,VALID,24.0896,VALID,157,VALID,1.47891,
2014-03-24, 10:12:04,VALID,918.337,VALID,0,VALID,67.4062,VALID,764.444,VALID,24.283,VALID,75,VALID,1.91328,
2014-03-24, 10:13:04,VALID,918.274,VALID,0,VALID,63.6022,VALID,290.091,VALID,24.1464,VALID,140,VALID,3.24766,
2014-03-24, 10:14:04,VALID,918.314,VALID,0,VALID,66.5524,VALID,285.793,VALID,24.0097,VALID,107,VALID,1.0332,
2014-03-24, 10:15:04,VALID,918.305,VALID,0,VALID,67.8408,VALID,254.421,VALID,24.0115,VALID,133,VALID,2.10508,
2014-03-24, 10:16:04,VALID,918.27,VALID,0,VALID,66.0188,VALID,277.306,VALID,23.8536,VALID,161,VALID,1.38477,
2014-03-24, 10:17:04,VALID,918.266,VALID,0,VALID,67.6502,VALID,322.216,VALID,23.7755,VALID,79,VALID,3.35508,
2014-03-24, 10:18:04,VALID,918.228,VALID,0,VALID,68.6641,VALID,251.305,VALID,23.756,VALID,90,VALID,3.22578,
2014-03-24, 10:19:04,VALID,918.217,VALID,0,VALID,68.2524,VALID,215.849,VALID,23.756,VALID,146,VALID,1.625,
2014-03-24, 10:20:04,VALID,918.2,VALID,0,VALID,66.5829,VALID,250.016,VALID,23.6992,VALID,160,VALID,2.23594,
2014-03-24, 10:21:04,VALID,918.208,VALID,0,VALID,66.5982,VALID,829.875,VALID,23.5608,VALID,140,VALID,3.18164,
2014-03-24, 10:22:04,VALID,918.199,VALID,0,VALID,67.4444,VALID,853.083,VALID,23.6406,VALID,131,VALID,2.48672,
2014-03-24, 10:23:04,VALID,918.138,VALID,0,VALID,69.5484,VALID,815.371,VALID,23.7773,VALID,62,VALID,4.675,
2014-03-24, 10:24:04,VALID,918.143,VALID,0,VALID,68.1305,VALID,764.766,VALID,23.9725,VALID,142,VALID,2.13125,
2014-03-24, 10:25:04,VALID,918.116,VALID,0,VALID,65.7062,VALID,784.32,VALID,24.0311,VALID,73,VALID,2.32773,
2014-03-24, 10:26:04,VALID,918.152,VALID,0,VALID,68.0161,VALID,787.866,VALID,24.1854,VALID,77,VALID,1.55508,
2014-03-24, 10:27:04,VALID,918.114,VALID,0,VALID,64.4712,VALID,752.84,VALID,24.4392,VALID,48,VALID,2.15859,
2014-03-24, 10:28:04,VALID,918.135,VALID,0,VALID,64.1358,VALID,723.831,VALID,24.5778,VALID,126,VALID,1.50586,
2014-03-24, 10:29:04,VALID,918.045,VALID,0,VALID,62.7865,VALID,591.893,VALID,24.5954,VALID,50,VALID,3.05703,
2014-03-24, 10:30:04,VALID,918.083,VALID,0,VALID,62.6645,VALID,317.811,VALID,24.4997,VALID,121,VALID,3.22773,
2014-03-24, 10:31:04,VALID,918.071,VALID,0,VALID,64.1434,VALID,326.621,VALID,24.244,VALID,130,VALID,3.67109,
2014-03-24, 10:32:04,VALID,918.023,VALID,0,VALID,66.2704,VALID,796.139,VALID,24.0683,VALID,89,VALID,2.36758,
2014-03-24, 10:33:04,VALID,918.04,VALID,0,VALID,64.1663,VALID,657.54,VALID,24.1677,VALID,119,VALID,2.18477,
2014-03-24, 10:34:04,VALID,917.98,VALID,0,VALID,64.799,VALID,516.685,VALID,24.244,VALID,53,VALID,1.66992,
2014-03-24, 10:35:04,VALID,917.988,VALID,0,VALID,64.7533,VALID,505.618,VALID,24.244,VALID,152,VALID,3.02383,
2014-03-24, 10:36:04,VALID,917.992,VALID,0,VALID,63.9071,VALID,674.301,VALID,24.4002,VALID,134,VALID,1.79688,
2014-03-24, 10:37:04,VALID,917.944,VALID,0,VALID,63.5412,VALID,819.131,VALID,24.6345,VALID,64,VALID,2.41445,
2014-03-24, 10:38:04,VALID,917.947,VALID,0,VALID,64.4331,VALID,808.28,VALID,24.7711,VALID,141,VALID,1.81953,
2014-03-24, 10:39:04,VALID,917.918,VALID,0,VALID,62.6569,VALID,673.441,VALID,24.8102,VALID,174,VALID,2.88398,
2014-03-24, 10:40:04,VALID,917.911,VALID,0,VALID,62.4205,VALID,280.529,VALID,24.9292,VALID,82,VALID,3.60352,
2014-03-24, 10:41:04,VALID,917.812,VALID,0,VALID,63.0914,VALID,834.388,VALID,24.7907,VALID,54,VALID,3.70352,
2014-03-24, 10:42:04,VALID,917.855,VALID,0,VALID,65.4394,VALID,345.423,VALID,24.7907,VALID,134,VALID,2.22773,
2014-03-24, 10:43:04,VALID,917.812,VALID,0,VALID,63.6555,VALID,276.876,VALID,24.7711,VALID,102,VALID,2.50703,
2014-03-24, 10:44:04,VALID,917.811,VALID,0,VALID,64.5322,VALID,866.191,VALID,24.7321,VALID,175,VALID,2.6457,
2014-03-24, 10:45:04,VALID,917.828,VALID,0,VALID,63.564,VALID,827.619,VALID,24.8102,VALID,147,VALID,3.24844,
2014-03-24, 10:46:04,VALID,917.828,VALID,0,VALID,63.1981,VALID,831.38,VALID,24.9274,VALID,142,VALID,1.60156,
2014-03-24, 10:47:04,VALID,917.815,VALID,0,VALID,63.1143,VALID,849.537,VALID,25.0055,VALID,168,VALID,1.88906,
2014-03-24, 10:48:04,VALID,917.823,VALID,0,VALID,60.751,VALID,837.719,VALID,25.1422,VALID,161,VALID,2.29531,
2014-03-24, 10:49:04,VALID,917.81,VALID,0,VALID,61.0941,VALID,819.024,VALID,25.1617,VALID,117,VALID,2.3125,
2014-03-24, 10:50:04,VALID,917.833,VALID,0,VALID,62.512,VALID,548.595,VALID,24.945,VALID,140,VALID,3.86172,
2014-03-24, 10:51:04,VALID,917.839,VALID,0,VALID,63.7318,VALID,328.662,VALID,24.9859,VALID,80,VALID,2.63242,
2014-03-24, 10:52:04,VALID,917.861,VALID,0,VALID,63.9833,VALID,266.024,VALID,25.0036,VALID,65,VALID,3.82734,
2014-03-24, 10:53:04,VALID,917.874,VALID,0,VALID,62.6874,VALID,288.265,VALID,24.9255,VALID,87,VALID,1.98203,